This demonstration page uses our WeatherBlox Daily Observations layout. Learn more.

Left ArrowRight Arrow

38.88101, -77.10428

Hourly Observations for July 19, 2021

Temp ( °F °C ) Dew Point ( °F °C ) Humidity (%) Winds ( mph kmh ) Pressure ( in mb ) Visibility ( mi km ) Precip ( " mm )
12:52 am 00:52 Cloudy 75 23.9 62 16.7 64 64 S 5 7 30.07 1018 10 16 N/A
1:52 am 01:52 Cloudy 75 23.9 61 16.1 62 62 WSW 8 13 30.06 1018 10 16 N/A
2:52 am 02:52 Cloudy 76 24.4 61 16.1 60 60 W 10 17 30.05 1018 10 16 N/A
3:52 am 03:52 Cloudy 75 23.9 62 16.7 64 64 WNW 6 9 30.04 1017 10 16 N/A
4:52 am 04:52 Cloudy 75 23.9 62 16.7 64 64 NNW 9 15 30.04 1017 10 16 N/A
5:52 am 05:52 Cloudy 74 23.3 62 16.7 67 67 NNW 9 15 30.05 1018 10 16 N/A
6:52 am 06:52 Mostly Cloudy 72 22.2 63 17.2 73 73 NNW 6 9 30.06 1018 10 16 N/A
7:52 am 07:52 Cloudy 74 23.3 63 17.2 69 69 NNW 6 9 30.07 1018 10 16 N/A
8:52 am 08:52 Cloudy 76 24.4 63 17.2 64 64 N 5 7 30.09 1019 10 16 N/A
9:52 am 09:52 Cloudy 81 27.2 64 17.8 57 57 N N/A 30.08 1019 10 16 N/A
10:52 am 10:52 Cloudy 81 27.2 62 16.7 53 53 ESE 5 7 30.07 1018 10 16 N/A
11:52 am 11:52 Sunny 84 28.9 61 16.1 46 46 VRB 3 6 30.06 1018 10 16 N/A
12:52 pm 12:52 Cloudy 85 29.4 64 17.8 50 50 SSE 7 11 30.05 1018 10 16 N/A
1:52 pm 13:52 Cloudy 86 30 62 16.7 45 45 E 5 7 30.04 1017 10 16 N/A
2:52 pm 14:52 Mostly Cloudy 88 31.1 60 15.6 39 39 VRB 7 11 30.02 1017 10 16 N/A
3:52 pm 15:52 Mostly Cloudy 89 31.7 61 16.1 39 39 N 6 9 30.00 1016 10 16 N/A
4:52 pm 16:52 Mostly Cloudy 88 31.1 64 17.8 45 45 S 8 13 29.99 1016 10 16 N/A
5:52 pm 17:52 Mostly Cloudy 86 30 66 18.9 51 51 S 8 13 29.98 1015 10 16 N/A
6:52 pm 18:52 Partly Cloudy 85 29.4 67 19.4 55 55 S 7 11 29.98 1015 10 16 N/A
7:52 pm 19:52 Partly Cloudy 83 28.3 66 18.9 57 57 SSW 8 13 29.99 1016 10 16 N/A
8:52 pm 20:52 Mostly Clear 81 27.2 67 19.4 62 62 S 7 11 30.01 1016 10 16 N/A
9:52 pm 21:52 Clear 80 26.7 68 20 67 67 S 9 15 30.01 1016 10 16 N/A
10:52 pm 22:52 Clear 78 25.6 68 20 71 71 S 7 11 30.01 1016 10 16 N/A
11:52 pm 23:52 Clear 77 25 68 20 74 74 S 7 11 30.01 1016 10 16 N/A

Powered by AerisWeather